Time,TemperatureF,DewpointF,PressureIn,WindDirection,WindDirectionDegrees,WindSpeedMPH,WindSpeedGustMPH,Humidity,HourlyPrecipIn,Conditions,Clouds,dailyrainin,SoftwareType,DateUTC
2013-06-22 00:01:00,71.1,56.1,30.15,SSW,208,1.0,2.0,59,0.00,,---,0.00,VWS V14.00,2013-06-22 04:01:00,
2013-06-22 00:06:00,70.9,55.9,30.15,SSW,205,1.0,6.0,59,0.00,,---,0.00,VWS V14.00,2013-06-22 04:06:00,
2013-06-22 00:11:00,70.8,55.8,30.15,SW,228,0.0,4.0,59,0.00,,---,0.00,VWS V14.00,2013-06-22 04:11:00,
2013-06-22 00:16:00,70.6,55.6,30.15,SW,229,1.0,2.0,59,0.00,,---,0.00,VWS V14.00,2013-06-22 04:16:00,
2013-06-22 00:21:00,70.3,55.8,30.15,SW,224,0.0,0.0,60,0.00,,---,0.00,VWS V14.00,2013-06-22 04:21:00,
2013-06-22 00:26:00,70.1,55.6,30.15,WNW,288,2.0,5.0,60,0.00,,---,0.00,VWS V14.00,2013-06-22 04:26:00,
2013-06-22 00:31:00,70.2,55.2,30.15,SSW,201,0.0,5.0,59,0.00,,---,0.00,VWS V14.00,2013-06-22 04:31:00,
2013-06-22 00:36:00,70.1,55.1,30.15,SSW,213,0.0,5.0,59,0.00,,---,0.00,VWS V14.00,2013-06-22 04:36:00,
2013-06-22 00:41:00,70.0,55.0,30.15,SSW,212,2.0,7.0,59,0.00,,---,0.00,VWS V14.00,2013-06-22 04:41:00,
2013-06-22 00:47:00,69.8,54.8,30.15,SSW,194,4.0,4.0,59,0.00,,---,0.00,VWS V14.00,2013-06-22 04:47:00,
2013-06-22 00:52:00,69.7,55.2,30.15,SW,231,0.0,2.0,60,0.00,,---,0.00,VWS V14.00,2013-06-22 04:52:00,
2013-06-22 00:57:00,69.4,54.9,30.15,SW,215,1.0,2.0,60,0.00,,---,0.00,VWS V14.00,2013-06-22 04:57:00,
2013-06-22 01:02:00,69.0,55.0,30.15,SW,231,0.0,0.0,61,0.00,,---,0.00,VWS V14.00,2013-06-22 05:02:00,
2013-06-22 01:07:00,68.6,55.1,30.15,SSW,210,0.0,0.0,62,0.00,,---,0.00,VWS V14.00,2013-06-22 05:07:00,
2013-06-22 01:12:00,68.3,54.8,30.15,SW,224,0.0,0.0,62,0.00,,---,0.00,VWS V14.00,2013-06-22 05:12:00,
2013-06-22 01:17:00,68.1,54.6,30.15,SW,219,0.0,0.0,62,0.00,,---,0.00,VWS V14.00,2013-06-22 05:17:00,
2013-06-22 01:22:00,68.0,55.0,30.14,SSW,212,0.0,0.0,63,0.00,,---,0.00,VWS V14.00,2013-06-22 05:22:00,
2013-06-22 01:27:00,67.8,54.8,30.14,SSW,212,0.0,0.0,63,0.00,,---,0.00,VWS V14.00,2013-06-22 05:27:00,
2013-06-22 01:32:00,67.5,54.5,30.15,SSW,194,0.0,0.0,63,0.00,,---,0.00,VWS V14.00,2013-06-22 05:32:00,
2013-06-22 01:37:00,67.2,54.2,30.14,South,186,0.0,0.0,63,0.00,,---,0.00,VWS V14.00,2013-06-22 05:37:00,
2013-06-22 01:42:00,67.2,54.2,30.14,South,188,0.0,0.0,63,0.00,,---,0.00,VWS V14.00,2013-06-22 05:42:00,
2013-06-22 01:47:00,67.0,54.4,30.15,South,190,0.0,0.0,64,0.00,,---,0.00,VWS V14.00,2013-06-22 05:47:00,
2013-06-22 01:53:00,67.0,54.0,30.14,SSW,205,0.0,0.0,63,0.00,,---,0.00,VWS V14.00,2013-06-22 05:53:00,
2013-06-22 01:58:00,66.8,53.8,30.15,SSW,207,0.0,0.0,63,0.00,,---,0.00,VWS V14.00,2013-06-22 05:58:00,
2013-06-22 02:03:00,66.5,53.5,30.15,SSW,205,0.0,0.0,63,0.00,,---,0.00,VWS V14.00,2013-06-22 06:03:00,
2013-06-22 02:08:00,66.5,54.0,30.15,SSW,207,0.0,0.0,64,0.00,,---,0.00,VWS V14.00,2013-06-22 06:08:00,
2013-06-22 02:13:00,66.3,53.8,30.14,SW,218,0.0,0.0,64,0.00,,---,0.00,VWS V14.00,2013-06-22 06:13:00,
2013-06-22 02:18:00,66.2,53.7,30.14,SW,215,0.0,0.0,64,0.00,,---,0.00,VWS V14.00,2013-06-22 06:18:00,
2013-06-22 02:23:00,66.2,53.7,30.14,West,271,0.0,0.0,64,0.00,,---,0.00,VWS V14.00,2013-06-22 06:23:00,
2013-06-22 02:28:00,66.4,53.4,30.14,SW,224,0.0,2.0,63,0.00,,---,0.00,VWS V14.00,2013-06-22 06:28:00,
2013-06-22 02:33:00,66.4,53.4,30.15,SW,224,0.0,0.0,63,0.00,,---,0.00,VWS V14.00,2013-06-22 06:33:00,
2013-06-22 02:38:00,66.3,53.3,30.15,SW,224,0.0,0.0,63,0.00,,---,0.00,VWS V14.00,2013-06-22 06:38:00,
2013-06-22 02:43:00,66.0,53.5,30.15,SW,224,0.0,0.0,64,0.00,,---,0.00,VWS V14.00,2013-06-22 06:43:00,
2013-06-22 02:48:00,65.8,53.3,30.15,SW,224,0.0,0.0,64,0.00,,---,0.00,VWS V14.00,2013-06-22 06:48:00,
2013-06-22 02:53:00,65.5,53.0,30.15,WSW,248,1.0,2.0,64,0.00,,---,0.00,VWS V14.00,2013-06-22 06:53:00,
2013-06-22 02:58:00,65.5,53.4,30.15,West,280,0.0,2.0,65,0.00,,---,0.00,VWS V14.00,2013-06-22 06:58:00,
2013-06-22 03:03:00,65.3,53.2,30.15,West,280,0.0,0.0,65,0.00,,---,0.00,VWS V14.00,2013-06-22 07:03:00,
2013-06-22 03:08:00,65.3,53.7,30.15,West,279,0.0,0.0,66,0.00,,---,0.00,VWS V14.00,2013-06-22 07:08:00,
2013-06-22 03:13:00,65.2,53.2,30.15,SW,222,0.0,2.0,65,0.00,,---,0.00,VWS V14.00,2013-06-22 07:13:00,
2013-06-22 03:18:00,65.3,53.2,30.15,SSW,200,0.0,2.0,65,0.00,,---,0.00,VWS V14.00,2013-06-22 07:18:00,
2013-06-22 03:23:00,65.3,53.2,30.15,SSW,212,2.0,3.0,65,0.00,,---,0.00,VWS V14.00,2013-06-22 07:23:00,
2013-06-22 03:28:00,65.3,53.2,30.14,South,181,2.0,2.0,65,0.00,,---,0.00,VWS V14.00,2013-06-22 07:28:00,
2013-06-22 03:33:00,65.4,53.3,30.14,SSE,158,2.0,3.0,65,0.00,,---,0.00,VWS V14.00,2013-06-22 07:33:00,
2013-06-22 03:38:00,65.4,53.8,30.14,South,176,1.0,1.0,66,0.00,,---,0.00,VWS V14.00,2013-06-22 07:38:00,
2013-06-22 03:43:00,65.3,53.7,30.14,SSE,166,0.0,0.0,66,0.00,,---,0.00,VWS V14.00,2013-06-22 07:43:00,
2013-06-22 03:49:00,65.3,53.7,30.14,SSW,200,2.0,2.0,66,0.00,,---,0.00,VWS V14.00,2013-06-22 07:49:00,
2013-06-22 03:54:00,65.2,53.6,30.14,SSW,206,0.0,0.0,66,0.00,,---,0.00,VWS V14.00,2013-06-22 07:54:00,
2013-06-22 03:59:00,65.1,53.9,30.14,SSE,166,0.0,0.0,67,0.00,,---,0.00,VWS V14.00,2013-06-22 07:59:00,
2013-06-22 04:04:00,65.1,53.9,30.14,SSW,208,0.0,0.0,67,0.00,,---,0.00,VWS V14.00,2013-06-22 08:04:00,
2013-06-22 04:09:00,65.1,53.9,30.14,South,188,0.0,0.0,67,0.00,,---,0.00,VWS V14.00,2013-06-22 08:09:00,
2013-06-22 04:14:00,64.9,53.7,30.14,SSW,204,0.0,0.0,67,0.00,,---,0.00,VWS V14.00,2013-06-22 08:14:00,
2013-06-22 04:19:00,64.5,53.7,30.14,SSW,204,0.0,0.0,68,0.00,,---,0.00,VWS V14.00,2013-06-22 08:19:00,
2013-06-22 04:24:00,64.5,53.7,30.14,South,174,0.0,0.0,68,0.00,,---,0.00,VWS V14.00,2013-06-22 08:24:00,
2013-06-22 04:29:00,64.5,53.7,30.14,South,183,2.0,2.0,68,0.00,,---,0.00,VWS V14.00,2013-06-22 08:29:00,
2013-06-22 04:34:00,64.6,53.8,30.14,South,173,1.0,2.0,68,0.00,,---,0.00,VWS V14.00,2013-06-22 08:34:00,
2013-06-22 04:39:00,64.5,53.7,30.14,SSW,211,0.0,0.0,68,0.00,,---,0.00,VWS V14.00,2013-06-22 08:39:00,
2013-06-22 04:44:00,64.2,53.8,30.14,SSW,210,0.0,0.0,69,0.00,,---,0.00,VWS V14.00,2013-06-22 08:44:00,
2013-06-22 04:49:00,63.9,53.5,30.14,SSW,210,0.0,0.0,69,0.00,,---,0.00,VWS V14.00,2013-06-22 08:49:00,
2013-06-22 04:55:00,63.5,53.9,30.14,SSW,210,0.0,0.0,71,0.00,,---,0.00,VWS V14.00,2013-06-22 08:55:00,
2013-06-22 05:00:00,63.3,53.8,30.14,SSW,210,0.0,0.0,71,0.00,,---,0.00,VWS V14.00,2013-06-22 09:00:00,
2013-06-22 05:05:00,63.0,53.8,30.14,SSW,210,0.0,0.0,72,0.00,,---,0.00,VWS V14.00,2013-06-22 09:05:00,
2013-06-22 05:10:00,62.8,54.4,30.15,SSW,210,0.0,0.0,74,0.00,,---,0.00,VWS V14.00,2013-06-22 09:10:00,
2013-06-22 05:15:00,62.5,54.1,30.15,SSW,211,0.0,0.0,74,0.00,,---,0.00,VWS V14.00,2013-06-22 09:15:00,
2013-06-22 05:20:00,62.3,54.3,30.15,SSW,211,0.0,0.0,75,0.00,,---,0.00,VWS V14.00,2013-06-22 09:20:00,
2013-06-22 05:25:00,62.1,54.5,30.15,SSW,211,0.0,0.0,76,0.00,,---,0.00,VWS V14.00,2013-06-22 09:25:00,
2013-06-22 05:30:00,61.7,54.4,30.15,SSW,211,0.0,0.0,77,0.00,,---,0.00,VWS V14.00,2013-06-22 09:30:00,
2013-06-22 05:35:00,61.4,54.5,30.15,SSW,211,0.0,0.0,78,0.00,,---,0.00,VWS V14.00,2013-06-22 09:35:00,
2013-06-22 05:40:00,61.1,54.5,30.15,SSW,211,0.0,0.0,79,0.00,,---,0.00,VWS V14.00,2013-06-22 09:40:00,
2013-06-22 05:45:00,61.0,54.5,30.15,SSW,211,0.0,0.0,79,0.00,,---,0.00,VWS V14.00,2013-06-22 09:45:00,
2013-06-22 05:50:00,61.2,54.6,30.15,SSW,193,0.0,0.0,79,0.00,,---,0.00,VWS V14.00,2013-06-22 09:50:00,
2013-06-22 05:56:00,61.8,54.2,30.15,South,176,0.0,1.0,76,0.00,,---,0.00,VWS V14.00,2013-06-22 09:56:00,
2013-06-22 06:01:00,62.3,54.7,30.15,South,170,0.0,0.0,76,0.00,,---,0.00,VWS V14.00,2013-06-22 10:01:00,
2013-06-22 06:06:00,63.0,55.0,30.15,SSE,162,1.0,3.0,75,0.00,,---,0.00,VWS V14.00,2013-06-22 10:06:00,
2013-06-22 06:11:00,63.5,55.1,30.15,SSW,203,2.0,3.0,74,0.00,,---,0.00,VWS V14.00,2013-06-22 10:11:00,
2013-06-22 06:16:00,63.9,55.5,30.15,SW,233,2.0,2.0,74,0.00,,---,0.00,VWS V14.00,2013-06-22 10:16:00,
2013-06-22 06:21:00,64.3,55.5,30.15,South,183,1.0,2.0,73,0.00,,---,0.00,VWS V14.00,2013-06-22 10:21:00,
2013-06-22 06:26:00,64.8,56.0,30.15,SW,236,0.0,0.0,73,0.00,,---,0.00,VWS V14.00,2013-06-22 10:26:00,
2013-06-22 06:31:00,65.1,55.9,30.15,South,173,2.0,5.0,72,0.00,,---,0.00,VWS V14.00,2013-06-22 10:31:00,
2013-06-22 06:36:00,65.4,55.8,30.15,SW,219,1.0,3.0,71,0.00,,---,0.00,VWS V14.00,2013-06-22 10:36:00,
2013-06-22 06:41:00,65.8,55.8,30.14,South,186,2.0,5.0,70,0.00,,---,0.00,VWS V14.00,2013-06-22 10:41:00,
2013-06-22 06:46:00,65.9,55.8,30.14,South,177,3.0,5.0,70,0.00,,---,0.00,VWS V14.00,2013-06-22 10:46:00,
2013-06-22 06:51:00,66.0,56.0,30.14,WSW,243,2.0,4.0,70,0.00,,---,0.00,VWS V14.00,2013-06-22 10:51:00,
2013-06-22 06:56:00,66.3,56.2,30.14,SSW,211,2.0,5.0,70,0.00,,---,0.00,VWS V14.00,2013-06-22 10:56:00,
2013-06-22 07:02:00,66.6,56.5,30.14,South,174,0.0,4.0,70,0.00,,---,0.00,VWS V14.00,2013-06-22 11:02:00,
2013-06-22 07:07:00,66.9,56.0,30.14,SSW,201,4.0,6.0,68,0.00,,---,0.00,VWS V14.00,2013-06-22 11:07:00,
2013-06-22 07:12:00,67.1,56.2,30.14,SSW,210,2.0,4.0,68,0.00,,---,0.00,VWS V14.00,2013-06-22 11:12:00,
2013-06-22 07:17:00,67.2,56.3,30.14,SSE,166,4.0,7.0,68,0.00,,---,0.00,VWS V14.00,2013-06-22 11:17:00,
2013-06-22 07:22:00,67.7,56.4,30.14,South,179,4.0,6.0,67,0.00,,---,0.00,VWS V14.00,2013-06-22 11:22:00,
2013-06-22 07:27:00,67.8,56.0,30.14,SSW,203,4.0,8.0,66,0.00,,---,0.00,VWS V14.00,2013-06-22 11:27:00,
2013-06-22 07:32:00,68.1,56.3,30.14,SSE,167,3.0,7.0,66,0.00,,---,0.00,VWS V14.00,2013-06-22 11:32:00,
2013-06-22 07:37:00,68.6,56.4,30.14,SSW,208,4.0,6.0,65,0.00,,---,0.00,VWS V14.00,2013-06-22 11:37:00,
2013-06-22 07:42:00,68.7,56.5,30.14,SSE,164,3.0,6.0,65,0.00,,---,0.00,VWS V14.00,2013-06-22 11:42:00,
2013-06-22 07:47:00,69.0,56.3,30.15,South,191,3.0,7.0,64,0.00,,---,0.00,VWS V14.00,2013-06-22 11:47:00,
2013-06-22 07:52:00,69.3,56.2,30.14,SW,214,3.0,5.0,63,0.00,,---,0.00,VWS V14.00,2013-06-22 11:52:00,
2013-06-22 07:58:00,69.7,56.6,30.15,SE,146,2.0,5.0,63,0.00,,---,0.00,VWS V14.00,2013-06-22 11:58:00,
2013-06-22 08:03:00,70.3,57.1,30.15,South,181,0.0,4.0,63,0.00,,---,0.00,VWS V14.00,2013-06-22 12:03:00,
2013-06-22 08:08:00,71.0,57.3,30.15,SSE,153,3.0,4.0,62,0.00,,---,0.00,VWS V14.00,2013-06-22 12:08:00,
2013-06-22 08:13:00,71.1,57.0,30.14,SSW,204,3.0,6.0,61,0.00,,---,0.00,VWS V14.00,2013-06-22 12:13:00,
2013-06-22 08:18:00,71.3,56.7,30.14,SSW,201,4.0,7.0,60,0.00,,---,0.00,VWS V14.00,2013-06-22 12:18:00,
2013-06-22 08:23:00,71.5,57.4,30.14,South,176,2.0,6.0,61,0.00,,---,0.00,VWS V14.00,2013-06-22 12:23:00,
2013-06-22 08:28:00,71.7,57.5,30.15,WSW,244,2.0,5.0,61,0.00,,---,0.00,VWS V14.00,2013-06-22 12:28:00,
2013-06-22 08:33:00,72.5,58.3,30.15,South,183,1.0,2.0,61,0.00,,---,0.00,VWS V14.00,2013-06-22 12:33:00,
2013-06-22 08:38:00,73.1,57.9,30.14,South,186,3.0,6.0,59,0.00,,---,0.00,VWS V14.00,2013-06-22 12:38:00,
2013-06-22 08:43:00,73.2,58.0,30.15,SE,136,1.0,1.0,59,0.00,,---,0.00,VWS V14.00,2013-06-22 12:43:00,
2013-06-22 08:48:00,73.8,58.1,30.15,ESE,115,1.0,2.0,58,0.00,,---,0.00,VWS V14.00,2013-06-22 12:48:00,
2013-06-22 08:53:00,73.9,58.7,30.15,SW,215,2.0,3.0,59,0.00,,---,0.00,VWS V14.00,2013-06-22 12:53:00,
2013-06-22 08:58:00,74.0,58.8,30.15,SW,226,2.0,4.0,59,0.00,,---,0.00,VWS V14.00,2013-06-22 12:58:00,
2013-06-22 09:04:00,74.4,59.6,30.14,SW,235,3.0,3.0,60,0.00,,---,0.00,VWS V14.00,2013-06-22 13:04:00,
2013-06-22 09:09:00,75.2,59.9,30.15,SE,145,2.0,2.0,59,0.00,,---,0.00,VWS V14.00,2013-06-22 13:09:00,
2013-06-22 09:14:00,75.5,60.2,30.14,NNW,343,1.0,3.0,59,0.00,,---,0.00,VWS V14.00,2013-06-22 13:14:00,
2013-06-22 09:19:00,76.2,60.8,30.14,SW,217,2.0,3.0,59,0.00,,---,0.00,VWS V14.00,2013-06-22 13:19:00,
2013-06-22 09:24:00,76.6,60.7,30.14,WSW,243,3.0,4.0,58,0.00,,---,0.00,VWS V14.00,2013-06-22 13:24:00,
2013-06-22 09:29:00,76.7,61.8,30.14,WNW,293,3.0,7.0,60,0.00,,---,0.00,VWS V14.00,2013-06-22 13:29:00,
2013-06-22 09:34:00,76.7,61.8,30.14,West,259,2.0,4.0,60,0.00,,---,0.00,VWS V14.00,2013-06-22 13:34:00,
2013-06-22 09:39:00,76.3,61.9,30.15,SW,229,1.0,3.0,61,0.00,,---,0.00,VWS V14.00,2013-06-22 13:39:00,
2013-06-22 09:44:00,77.0,62.1,30.14,WNW,287,2.0,2.0,60,0.00,,---,0.00,VWS V14.00,2013-06-22 13:44:00,
2013-06-22 09:49:00,77.6,62.2,30.14,NW,316,4.0,4.0,59,0.00,,---,0.00,VWS V14.00,2013-06-22 13:49:00,
2013-06-22 09:54:00,77.5,62.5,30.14,NW,320,1.0,3.0,60,0.00,,---,0.00,VWS V14.00,2013-06-22 13:54:00,
2013-06-22 09:59:00,78.3,62.3,30.14,West,261,3.0,8.0,58,0.00,,---,0.00,VWS V14.00,2013-06-22 13:59:00,
2013-06-22 10:05:00,78.9,62.4,30.14,ENE,65,0.0,4.0,57,0.00,,---,0.00,VWS V14.00,2013-06-22 14:05:00,
2013-06-22 10:10:00,79.2,62.2,30.14,SSW,210,1.0,3.0,56,0.00,,---,0.00,VWS V14.00,2013-06-22 14:10:00,
2013-06-22 10:15:00,79.2,62.2,30.15,SSW,207,4.0,5.0,56,0.00,,---,0.00,VWS V14.00,2013-06-22 14:15:00,
2013-06-22 10:20:00,78.8,62.3,30.15,SSW,208,3.0,6.0,57,0.00,,---,0.00,VWS V14.00,2013-06-22 14:20:00,
2013-06-22 10:25:00,78.8,62.3,30.14,South,188,2.0,4.0,57,0.00,,---,0.00,VWS V14.00,2013-06-22 14:25:00,
2013-06-22 10:30:00,79.2,62.7,30.14,SSW,200,3.0,5.0,57,0.00,,---,0.00,VWS V14.00,2013-06-22 14:30:00,
2013-06-22 10:35:00,79.7,63.1,30.14,NNE,15,1.0,3.0,57,0.00,,---,0.00,VWS V14.00,2013-06-22 14:35:00,
2013-06-22 10:40:00,80.2,63.1,30.14,SW,235,2.0,3.0,56,0.00,,---,0.00,VWS V14.00,2013-06-22 14:40:00,
2013-06-22 10:45:00,81.0,62.8,30.14,NW,312,3.0,4.0,54,0.00,,---,0.00,VWS V14.00,2013-06-22 14:45:00,
2013-06-22 10:50:00,81.1,62.4,30.14,SW,224,6.0,7.0,53,0.00,,---,0.00,VWS V14.00,2013-06-22 14:50:00,
2013-06-22 10:56:00,81.3,62.0,30.15,SSW,210,8.0,8.0,52,0.00,,---,0.00,VWS V14.00,2013-06-22 14:56:00,
2013-06-22 11:01:00,81.2,61.4,30.15,WNW,302,1.0,6.0,51,0.00,,---,0.00,VWS V14.00,2013-06-22 15:01:00,
2013-06-22 11:06:00,81.1,61.8,30.14,SW,218,4.0,7.0,52,0.00,,---,0.00,VWS V14.00,2013-06-22 15:06:00,
2013-06-22 11:11:00,80.8,61.5,30.15,SW,214,2.0,7.0,52,0.00,,---,0.00,VWS V14.00,2013-06-22 15:11:00,
2013-06-22 11:16:00,81.5,61.1,30.15,WSW,238,1.0,6.0,50,0.00,,---,0.00,VWS V14.00,2013-06-22 15:16:00,
2013-06-22 11:21:00,81.7,61.3,30.15,WNW,282,0.0,6.0,50,0.00,,---,0.00,VWS V14.00,2013-06-22 15:21:00,
2013-06-22 11:26:00,82.1,61.6,30.15,South,181,6.0,7.0,50,0.00,,---,0.00,VWS V14.00,2013-06-22 15:26:00,
2013-06-22 11:31:00,82.5,60.8,30.15,WSW,256,2.0,6.0,48,0.00,,---,0.00,VWS V14.00,2013-06-22 15:31:00,
2013-06-22 11:36:00,83.2,62.7,30.15,SW,236,4.0,4.0,50,0.00,,---,0.00,VWS V14.00,2013-06-22 15:36:00,
2013-06-22 11:42:00,83.5,62.3,30.15,SSW,193,4.0,8.0,49,0.00,,---,0.00,VWS V14.00,2013-06-22 15:42:00,
2013-06-22 11:47:00,83.2,61.5,30.15,South,175,4.0,6.0,48,0.00,,---,0.00,VWS V14.00,2013-06-22 15:47:00,
2013-06-22 11:52:00,83.7,60.7,30.15,SSW,208,4.0,6.0,46,0.00,,---,0.00,VWS V14.00,2013-06-22 15:52:00,
2013-06-22 11:57:00,83.3,59.8,30.15,South,174,3.0,6.0,45,0.00,,---,0.00,VWS V14.00,2013-06-22 15:57:00,
2013-06-22 12:02:00,83.7,59.5,30.15,SSW,192,7.0,8.0,44,0.00,,---,0.00,VWS V14.00,2013-06-22 16:02:00,
2013-06-22 12:07:00,83.9,60.3,30.15,SSE,150,2.0,6.0,45,0.00,,---,0.00,VWS V14.00,2013-06-22 16:07:00,
2013-06-22 12:12:00,84.2,60.0,30.15,WSW,241,1.0,5.0,44,0.00,,---,0.00,VWS V14.00,2013-06-22 16:12:00,
2013-06-22 12:17:00,84.6,60.3,30.15,SW,220,0.0,8.0,44,0.00,,---,0.00,VWS V14.00,2013-06-22 16:17:00,
2013-06-22 12:22:00,85.1,60.1,30.14,South,184,9.0,10.0,43,0.00,,---,0.00,VWS V14.00,2013-06-22 16:22:00,
2013-06-22 12:27:00,85.3,60.3,30.14,SW,228,7.0,9.0,43,0.00,,---,0.00,VWS V14.00,2013-06-22 16:27:00,
2013-06-22 12:32:00,84.4,58.8,30.14,South,186,4.0,9.0,42,0.00,,---,0.00,VWS V14.00,2013-06-22 16:32:00,
2013-06-22 12:38:00,85.2,59.5,30.14,SSW,197,6.0,11.0,42,0.00,,---,0.00,VWS V14.00,2013-06-22 16:38:00,
2013-06-22 12:43:00,84.5,59.6,30.13,WSW,250,2.0,10.0,43,0.00,,---,0.00,VWS V14.00,2013-06-22 16:43:00,
2013-06-22 12:48:00,84.5,57.5,30.13,SE,138,5.0,13.0,40,0.00,,---,0.00,VWS V14.00,2013-06-22 16:48:00,
2013-06-22 12:53:00,84.9,57.9,30.13,WSW,253,4.0,9.0,40,0.00,,---,0.00,VWS V14.00,2013-06-22 16:53:00,
2013-06-22 12:58:00,84.5,58.2,30.12,SSW,204,1.0,8.0,41,0.00,,---,0.00,VWS V14.00,2013-06-22 16:58:00,
2013-06-22 13:03:00,84.8,59.2,30.12,WSW,240,6.0,8.0,42,0.00,,---,0.00,VWS V14.00,2013-06-22 17:03:00,
2013-06-22 13:08:00,85.1,58.8,30.12,SW,224,1.0,8.0,41,0.00,,---,0.00,VWS V14.00,2013-06-22 17:08:00,
2013-06-22 13:13:00,85.2,59.5,30.11,WSW,246,4.0,10.0,42,0.00,,---,0.00,VWS V14.00,2013-06-22 17:13:00,
2013-06-22 13:18:00,85.2,60.2,30.11,South,172,4.0,10.0,43,0.00,,---,0.00,VWS V14.00,2013-06-22 17:18:00,
2013-06-22 13:23:00,85.7,59.3,30.10,SW,217,3.0,11.0,41,0.00,,---,0.00,VWS V14.00,2013-06-22 17:23:00,
2013-06-22 13:28:00,85.7,59.3,30.10,South,190,8.0,11.0,41,0.00,,---,0.00,VWS V14.00,2013-06-22 17:28:00,
2013-06-22 13:33:00,86.1,59.7,30.10,West,262,4.0,9.0,41,0.00,,---,0.00,VWS V14.00,2013-06-22 17:33:00,
2013-06-22 13:38:00,86.0,60.3,30.10,West,280,2.0,8.0,42,0.00,,---,0.00,VWS V14.00,2013-06-22 17:38:00,
2013-06-22 13:43:00,86.0,59.6,30.09,SW,222,1.0,7.0,41,0.00,,---,0.00,VWS V14.00,2013-06-22 17:43:00,
2013-06-22 13:48:00,85.9,60.8,30.09,ENE,65,1.0,11.0,43,0.00,,---,0.00,VWS V14.00,2013-06-22 17:48:00,
2013-06-22 13:53:00,86.1,59.7,30.09,SW,219,4.0,5.0,41,0.00,,---,0.00,VWS V14.00,2013-06-22 17:53:00,
2013-06-22 13:58:00,86.2,60.4,30.09,SSW,208,6.0,8.0,42,0.00,,---,0.00,VWS V14.00,2013-06-22 17:58:00,
2013-06-22 14:03:00,86.3,59.2,30.09,SSW,203,3.0,7.0,40,0.00,,---,0.00,VWS V14.00,2013-06-22 18:03:00,
2013-06-22 14:09:00,86.8,59.6,30.09,SSW,194,8.0,11.0,40,0.00,,---,0.00,VWS V14.00,2013-06-22 18:09:00,
2013-06-22 14:14:00,86.6,60.8,30.09,NW,314,4.0,5.0,42,0.00,,---,0.00,VWS V14.00,2013-06-22 18:14:00,
2013-06-22 14:19:00,86.6,60.1,30.09,SSW,204,5.0,5.0,41,0.00,,---,0.00,VWS V14.00,2013-06-22 18:19:00,
2013-06-22 14:24:00,86.4,60.6,30.09,South,190,2.0,10.0,42,0.00,,---,0.00,VWS V14.00,2013-06-22 18:24:00,
2013-06-22 14:29:00,86.1,60.3,30.09,WNW,283,6.0,6.0,42,0.00,,---,0.00,VWS V14.00,2013-06-22 18:29:00,
2013-06-22 14:34:00,85.8,61.4,30.10,SSW,204,4.0,7.0,44,0.00,,---,0.00,VWS V14.00,2013-06-22 18:34:00,
2013-06-22 14:39:00,86.3,61.8,30.09,West,264,4.0,8.0,44,0.00,,---,0.00,VWS V14.00,2013-06-22 18:39:00,
2013-06-22 14:44:00,86.6,62.1,30.09,SSW,206,6.0,11.0,44,0.00,,---,0.00,VWS V14.00,2013-06-22 18:44:00,
2013-06-22 14:49:00,87.0,62.5,30.09,SW,232,2.0,3.0,44,0.00,,---,0.00,VWS V14.00,2013-06-22 18:49:00,
2013-06-22 14:54:00,86.5,62.0,30.09,WNW,283,1.0,4.0,44,0.00,,---,0.00,VWS V14.00,2013-06-22 18:54:00,
2013-06-22 15:00:00,86.8,62.3,30.09,SSE,159,4.0,8.0,44,0.00,,---,0.00,VWS V14.00,2013-06-22 19:00:00,
2013-06-22 15:05:00,86.9,62.4,30.09,WSW,246,9.0,10.0,44,0.00,,---,0.00,VWS V14.00,2013-06-22 19:05:00,
2013-06-22 15:10:00,86.7,62.8,30.08,SW,225,0.0,4.0,45,0.00,,---,0.00,VWS V14.00,2013-06-22 19:10:00,
2013-06-22 15:15:00,86.8,62.3,30.08,SSW,212,3.0,8.0,44,0.00,,---,0.00,VWS V14.00,2013-06-22 19:15:00,
2013-06-22 15:20:00,87.3,63.4,30.08,WSW,250,2.0,10.0,45,0.00,,---,0.00,VWS V14.00,2013-06-22 19:20:00,
2013-06-22 15:25:00,87.2,62.7,30.08,WSW,239,2.0,10.0,44,0.00,,---,0.00,VWS V14.00,2013-06-22 19:25:00,
2013-06-22 15:30:00,87.2,62.7,30.07,WNW,297,4.0,4.0,44,0.00,,---,0.00,VWS V14.00,2013-06-22 19:30:00,
2013-06-22 15:35:00,87.6,63.0,30.07,WNW,294,7.0,7.0,44,0.00,,---,0.00,VWS V14.00,2013-06-22 19:35:00,
2013-06-22 15:40:00,87.0,62.5,30.06,WNW,285,5.0,8.0,44,0.00,,---,0.00,VWS V14.00,2013-06-22 19:40:00,
2013-06-22 15:45:00,87.2,62.7,30.06,NW,312,4.0,10.0,44,0.00,,---,0.00,VWS V14.00,2013-06-22 19:45:00,
2013-06-22 15:50:00,87.3,62.7,30.06,West,270,3.0,6.0,44,0.00,,---,0.00,VWS V14.00,2013-06-22 19:50:00,
2013-06-22 15:56:00,86.8,62.9,30.06,NW,308,3.0,10.0,45,0.00,,---,0.00,VWS V14.00,2013-06-22 19:56:00,
2013-06-22 16:01:00,87.3,63.4,30.05,South,184,5.0,7.0,45,0.00,,---,0.00,VWS V14.00,2013-06-22 20:01:00,
2013-06-22 16:06:00,86.7,64.1,30.05,SSW,210,6.0,13.0,47,0.00,,---,0.00,VWS V14.00,2013-06-22 20:06:00,
2013-06-22 16:11:00,86.2,65.4,30.05,SSW,194,9.0,9.0,50,0.00,,---,0.00,VWS V14.00,2013-06-22 20:11:00,
2013-06-22 16:16:00,85.6,64.3,30.05,SSW,198,10.0,12.0,49,0.00,,---,0.00,VWS V14.00,2013-06-22 20:16:00,
2013-06-22 16:21:00,85.3,64.6,30.05,SSE,167,10.0,14.0,50,0.00,,---,0.00,VWS V14.00,2013-06-22 20:21:00,
2013-06-22 16:26:00,85.1,64.4,30.04,SSW,212,7.0,14.0,50,0.00,,---,0.00,VWS V14.00,2013-06-22 20:26:00,
2013-06-22 16:31:00,84.7,64.6,30.04,South,181,8.0,13.0,51,0.00,,---,0.00,VWS V14.00,2013-06-22 20:31:00,
2013-06-22 16:36:00,84.5,64.4,30.04,SSW,205,4.0,12.0,51,0.00,,---,0.00,VWS V14.00,2013-06-22 20:36:00,
2013-06-22 16:41:00,84.6,63.9,30.04,SSW,194,11.0,12.0,50,0.00,,---,0.00,VWS V14.00,2013-06-22 20:41:00,
2013-06-22 16:47:00,84.0,63.9,30.04,SSE,152,6.0,12.0,51,0.00,,---,0.00,VWS V14.00,2013-06-22 20:47:00,
2013-06-22 16:52:00,83.7,63.7,30.04,SSE,148,6.0,15.0,51,0.00,,---,0.00,VWS V14.00,2013-06-22 20:52:00,
2013-06-22 16:57:00,83.9,63.8,30.04,SSW,210,7.0,13.0,51,0.00,,---,0.00,VWS V14.00,2013-06-22 20:57:00,
2013-06-22 17:02:00,83.7,63.7,30.04,SSW,210,5.0,12.0,51,0.00,,---,0.00,VWS V14.00,2013-06-22 21:02:00,
2013-06-22 17:07:00,83.4,63.4,30.04,SSW,210,9.0,11.0,51,0.00,,---,0.00,VWS V14.00,2013-06-22 21:07:00,
2013-06-22 17:12:00,83.3,63.9,30.04,SSW,197,12.0,14.0,52,0.00,,---,0.00,VWS V14.00,2013-06-22 21:12:00,
2013-06-22 17:17:00,82.6,63.2,30.04,SSE,163,7.0,13.0,52,0.00,,---,0.00,VWS V14.00,2013-06-22 21:17:00,
2013-06-22 17:22:00,82.7,63.3,30.04,South,172,5.0,12.0,52,0.00,,---,0.00,VWS V14.00,2013-06-22 21:22:00,
2013-06-22 17:27:00,82.5,63.1,30.04,SW,217,11.0,14.0,52,0.00,,---,0.00,VWS V14.00,2013-06-22 21:27:00,
2013-06-22 17:32:00,82.1,63.3,30.04,SSE,152,9.0,13.0,53,0.00,,---,0.00,VWS V14.00,2013-06-22 21:32:00,
2013-06-22 17:37:00,82.0,63.2,30.03,SW,217,6.0,12.0,53,0.00,,---,0.00,VWS V14.00,2013-06-22 21:37:00,
2013-06-22 17:42:00,82.0,63.2,30.03,SE,143,6.0,11.0,53,0.00,,---,0.00,VWS V14.00,2013-06-22 21:42:00,
2013-06-22 17:47:00,82.0,62.7,30.03,SSW,203,10.0,10.0,52,0.00,,---,0.00,VWS V14.00,2013-06-22 21:47:00,
2013-06-22 17:52:00,81.7,62.9,30.03,SE,142,7.0,12.0,53,0.00,,---,0.00,VWS V14.00,2013-06-22 21:52:00,
2013-06-22 17:58:00,81.3,62.5,30.04,SE,144,7.0,12.0,53,0.00,,---,0.00,VWS V14.00,2013-06-22 21:58:00,
2013-06-22 18:03:00,81.0,62.8,30.03,SSE,154,5.0,10.0,54,0.00,,---,0.00,VWS V14.00,2013-06-22 22:03:00,
2013-06-22 18:08:00,80.9,62.7,30.03,SSE,162,4.0,11.0,54,0.00,,---,0.00,VWS V14.00,2013-06-22 22:08:00,
2013-06-22 18:13:00,80.9,62.7,30.03,SW,224,6.0,10.0,54,0.00,,---,0.00,VWS V14.00,2013-06-22 22:13:00,
2013-06-22 18:18:00,80.8,62.6,30.03,SW,219,7.0,11.0,54,0.00,,---,0.00,VWS V14.00,2013-06-22 22:18:00,
2013-06-22 18:23:00,80.7,62.5,30.03,SSE,152,6.0,11.0,54,0.00,,---,0.00,VWS V14.00,2013-06-22 22:23:00,
2013-06-22 18:28:00,80.5,62.3,30.03,SSE,153,7.0,11.0,54,0.00,,---,0.00,VWS V14.00,2013-06-22 22:28:00,
2013-06-22 18:33:00,80.1,62.5,30.02,South,177,8.0,8.0,55,0.00,,---,0.00,VWS V14.00,2013-06-22 22:33:00,
2013-06-22 18:38:00,80.0,62.4,30.02,SSE,165,8.0,10.0,55,0.00,,---,0.00,VWS V14.00,2013-06-22 22:38:00,
2013-06-22 18:43:00,80.0,62.4,30.02,SSW,198,7.0,10.0,55,0.00,,---,0.00,VWS V14.00,2013-06-22 22:43:00,
2013-06-22 18:49:00,80.0,62.4,30.02,SSE,165,5.0,6.0,55,0.00,,---,0.00,VWS V14.00,2013-06-22 22:49:00,
2013-06-22 18:54:00,80.2,62.1,30.02,SSW,208,7.0,8.0,54,0.00,,---,0.00,VWS V14.00,2013-06-22 22:54:00,
2013-06-22 18:59:00,80.1,62.0,30.02,SSE,159,4.0,6.0,54,0.00,,---,0.00,VWS V14.00,2013-06-22 22:59:00,
2013-06-22 19:04:00,80.0,62.4,30.02,ESE,121,4.0,6.0,55,0.00,,---,0.00,VWS V14.00,2013-06-22 23:04:00,
2013-06-22 19:09:00,79.9,61.8,30.02,SSW,212,13.0,13.0,54,0.00,,---,0.00,VWS V14.00,2013-06-22 23:09:00,
2013-06-22 19:14:00,79.6,61.5,30.02,SSE,165,9.0,12.0,54,0.00,,---,0.00,VWS V14.00,2013-06-22 23:14:00,
2013-06-22 19:19:00,79.5,61.9,30.02,South,179,9.0,9.0,55,0.00,,---,0.00,VWS V14.00,2013-06-22 23:19:00,
2013-06-22 19:24:00,79.4,61.3,30.02,SSE,167,4.0,8.0,54,0.00,,---,0.00,VWS V14.00,2013-06-22 23:24:00,
2013-06-22 19:29:00,79.5,61.4,30.02,SW,214,6.0,10.0,54,0.00,,---,0.00,VWS V14.00,2013-06-22 23:29:00,
2013-06-22 19:34:00,79.3,61.2,30.02,SSW,206,5.0,8.0,54,0.00,,---,0.00,VWS V14.00,2013-06-22 23:34:00,
2013-06-22 19:39:00,79.1,61.6,30.02,South,181,4.0,6.0,55,0.00,,---,0.00,VWS V14.00,2013-06-22 23:39:00,
2013-06-22 19:44:00,79.0,61.5,30.02,SW,218,9.0,10.0,55,0.00,,---,0.00,VWS V14.00,2013-06-22 23:44:00,
2013-06-22 19:50:00,78.6,61.1,30.02,SSW,211,6.0,11.0,55,0.00,,---,0.00,VWS V14.00,2013-06-22 23:50:00,
2013-06-22 19:55:00,78.0,60.5,30.02,SSW,207,11.0,11.0,55,0.00,,---,0.00,VWS V14.00,2013-06-22 23:55:00,
2013-06-22 20:00:00,77.5,60.6,30.02,SSE,153,4.0,10.0,56,0.00,,---,0.00,VWS V14.00,2013-06-23 00:00:00,
2013-06-22 20:05:00,77.1,60.2,30.02,South,173,6.0,11.0,56,0.00,,---,0.00,VWS V14.00,2013-06-23 00:05:00,
2013-06-22 20:10:00,76.8,60.4,30.02,South,187,7.0,10.0,57,0.00,,---,0.00,VWS V14.00,2013-06-23 00:10:00,
2013-06-22 20:15:00,76.5,59.7,30.02,South,184,5.0,10.0,56,0.00,,---,0.00,VWS V14.00,2013-06-23 00:15:00,
2013-06-22 20:20:00,76.3,59.5,30.02,SSW,193,6.0,7.0,56,0.00,,---,0.00,VWS V14.00,2013-06-23 00:20:00,
2013-06-22 20:25:00,76.1,59.3,30.02,SSE,158,5.0,10.0,56,0.00,,---,0.00,VWS V14.00,2013-06-23 00:25:00,
2013-06-22 20:30:00,75.9,59.1,30.02,SSW,204,5.0,8.0,56,0.00,,---,0.00,VWS V14.00,2013-06-23 00:30:00,
2013-06-22 20:35:00,75.7,58.9,30.02,South,177,5.0,11.0,56,0.00,,---,0.00,VWS V14.00,2013-06-23 00:35:00,
2013-06-22 20:40:00,75.5,59.2,30.02,South,169,8.0,8.0,57,0.00,,---,0.00,VWS V14.00,2013-06-23 00:40:00,
2013-06-22 20:45:00,75.3,59.0,30.03,South,186,8.0,10.0,57,0.00,,---,0.00,VWS V14.00,2013-06-23 00:45:00,
2013-06-22 20:51:00,75.1,58.8,30.03,South,171,8.0,8.0,57,0.00,,---,0.00,VWS V14.00,2013-06-23 00:51:00,
2013-06-22 20:56:00,74.8,59.0,30.03,SSW,206,6.0,13.0,58,0.00,,---,0.00,VWS V14.00,2013-06-23 00:56:00,
2013-06-22 21:01:00,74.6,58.9,30.03,SSE,165,6.0,11.0,58,0.00,,---,0.00,VWS V14.00,2013-06-23 01:01:00,
2013-06-22 21:06:00,74.4,58.7,30.03,SSW,193,4.0,7.0,58,0.00,,---,0.00,VWS V14.00,2013-06-23 01:06:00,
2013-06-22 21:11:00,74.3,58.6,30.04,SE,135,5.0,6.0,58,0.00,,---,0.00,VWS V14.00,2013-06-23 01:11:00,
2013-06-22 21:16:00,74.2,58.5,30.04,SSW,199,3.0,6.0,58,0.00,,---,0.00,VWS V14.00,2013-06-23 01:16:00,
2013-06-22 21:21:00,74.1,58.9,30.04,ESE,111,2.0,8.0,59,0.00,,---,0.00,VWS V14.00,2013-06-23 01:21:00,
2013-06-22 21:26:00,74.0,58.8,30.05,SSW,197,4.0,8.0,59,0.00,,---,0.00,VWS V14.00,2013-06-23 01:26:00,
2013-06-22 21:31:00,73.8,58.6,30.05,South,185,3.0,5.0,59,0.00,,---,0.00,VWS V14.00,2013-06-23 01:31:00,
2013-06-22 21:36:00,73.7,58.5,30.05,South,176,7.0,10.0,59,0.00,,---,0.00,VWS V14.00,2013-06-23 01:36:00,
2013-06-22 21:42:00,73.5,58.3,30.05,SW,224,2.0,7.0,59,0.00,,---,0.00,VWS V14.00,2013-06-23 01:42:00,
2013-06-22 21:47:00,73.4,58.7,30.05,South,183,4.0,7.0,60,0.00,,---,0.00,VWS V14.00,2013-06-23 01:47:00,
2013-06-22 21:52:00,73.4,58.7,30.06,SSW,201,4.0,6.0,60,0.00,,---,0.00,VWS V14.00,2013-06-23 01:52:00,
2013-06-22 21:57:00,73.3,58.6,30.06,SSE,156,4.0,9.0,60,0.00,,---,0.00,VWS V14.00,2013-06-23 01:57:00,
2013-06-22 22:02:00,73.2,58.5,30.06,SSE,155,0.0,2.0,60,0.00,,---,0.00,VWS V14.00,2013-06-23 02:02:00,
2013-06-22 22:07:00,73.1,58.9,30.06,East,93,0.0,2.0,61,0.00,,---,0.00,VWS V14.00,2013-06-23 02:07:00,
2013-06-22 22:12:00,72.9,58.7,30.06,SE,141,1.0,3.0,61,0.00,,---,0.00,VWS V14.00,2013-06-23 02:12:00,
2013-06-22 22:17:00,72.7,58.5,30.06,SSE,154,3.0,4.0,61,0.00,,---,0.00,VWS V14.00,2013-06-23 02:17:00,
2013-06-22 22:22:00,72.6,58.4,30.06,SSE,167,1.0,3.0,61,0.00,,---,0.00,VWS V14.00,2013-06-23 02:22:00,
2013-06-22 22:27:00,72.4,58.7,30.07,SE,146,2.0,3.0,62,0.00,,---,0.00,VWS V14.00,2013-06-23 02:27:00,
2013-06-22 22:32:00,72.4,58.7,30.07,South,186,0.0,2.0,62,0.00,,---,0.00,VWS V14.00,2013-06-23 02:32:00,
2013-06-22 22:38:00,72.4,59.1,30.07,SSE,155,2.0,4.0,63,0.00,,---,0.00,VWS V14.00,2013-06-23 02:38:00,
2013-06-22 22:43:00,72.2,58.9,30.07,South,184,0.0,3.0,63,0.00,,---,0.00,VWS V14.00,2013-06-23 02:43:00,
2013-06-22 22:48:00,72.0,59.2,30.07,SSE,148,0.0,1.0,64,0.00,,---,0.00,VWS V14.00,2013-06-23 02:48:00,
2013-06-22 22:53:00,71.9,59.5,30.07,South,174,3.0,4.0,65,0.00,,---,0.00,VWS V14.00,2013-06-23 02:53:00,
2013-06-22 22:58:00,72.0,59.6,30.07,South,183,2.0,3.0,65,0.00,,---,0.00,VWS V14.00,2013-06-23 02:58:00,
2013-06-22 23:03:00,72.0,60.0,30.07,South,186,4.0,4.0,66,0.00,,---,0.00,VWS V14.00,2013-06-23 03:03:00,
2013-06-22 23:08:00,72.0,60.5,30.07,South,186,3.0,4.0,67,0.00,,---,0.00,VWS V14.00,2013-06-23 03:08:00,
2013-06-22 23:13:00,71.9,60.4,30.07,South,173,2.0,5.0,67,0.00,,---,0.00,VWS V14.00,2013-06-23 03:13:00,
2013-06-22 23:18:00,71.8,60.3,30.07,SW,217,2.0,3.0,67,0.00,,---,0.00,VWS V14.00,2013-06-23 03:18:00,
2013-06-22 23:23:00,71.6,60.5,30.07,SW,218,1.0,2.0,68,0.00,,---,0.00,VWS V14.00,2013-06-23 03:23:00,
2013-06-22 23:28:00,71.5,60.8,30.07,SW,218,0.0,1.0,69,0.00,,---,0.00,VWS V14.00,2013-06-23 03:28:00,
2013-06-22 23:33:00,71.4,60.7,30.07,SW,214,0.0,0.0,69,0.00,,---,0.00,VWS V14.00,2013-06-23 03:33:00,
2013-06-22 23:38:00,71.3,60.6,30.07,SSW,204,1.0,3.0,69,0.00,,---,0.00,VWS V14.00,2013-06-23 03:38:00,
2013-06-22 23:43:00,71.2,60.9,30.07,SSW,204,0.0,1.0,70,0.00,,---,0.00,VWS V14.00,2013-06-23 03:43:00,
2013-06-22 23:48:00,70.9,60.6,30.07,SSW,204,0.0,0.0,70,0.00,,---,0.00,VWS V14.00,2013-06-23 03:48:00,
2013-06-22 23:53:00,70.7,60.8,30.08,SSW,205,0.0,0.0,71,0.00,,---,0.00,VWS V14.00,2013-06-23 03:53:00,
2013-06-22 23:58:00,70.7,60.8,30.08,SSW,204,0.0,0.0,71,0.00,,---,0.00,VWS V14.00,2013-06-23 03:58:00,